Погода в Элисенвааре

Россия / Республика Карелия     61°24′26″N   29°45′46″E
темп.,
°C
ветер,
м/с
пор.,
м/с
влажн.,
%
обл.,
%
осадки,
мм/ч
давл.,
гПа
погр.,
м
20 апреля, вт
вт2000:00+3в27685 0.0 1029141
03:00+1в2586100 0.0 102897
06:00+1в2688100 0.0 1026133
09:00+4вюв356796 0.0 1025295
12:00+8вюв47495 0.0 1024807
15:00+8юв47435 0.0 10221188
18:00+8юв48412 0.0 10201316
21:00+3вюв22615 0.0 101937
21 апреля, ср
ср2100:00+3в246695 0.0 101779
03:00+2вюв2380100 0.0 101565
06:00+2вюв289091 0.0 1013230
09:00+5юв367990 0.0 1011594
12:00+6юв357096 0.0 1009898
15:00+8вюв2257100 0.1 10061276
18:00+6юв117392 0.0 1005696
21:00+3юв229699 0.1 1004456
22 апреля, чт
чт2200:00+3ю129366 0.0 1004199
03:00+1ююз249657 0.0 1004127
06:00+1ююз249680 0.0 1004109
09:00+6ю24756 0.0 1004376
12:00+9ююв356034 0.0 1005899
15:00+12ююв355096 0.1 10051488
18:00+11юв34539 0.1 1005992
21:00+5в268364 0.1 1006118
23 апреля, пт
пт2300:00+4юв3128887 0.1 1005361
03:00+4ю2791100 0.9 1006525
06:00+3ююв1493100 0.0 1006121
09:00+6юв3576100 0.0 1007575
12:00+6юв3480100 0.8 1007695
15:00+6юв3469100 1.9 1007980
18:00+7ююв356469 0.7 1007868
21:00+3юв248865 1.2 1009121
24 апреля, сб
сб2400:00+1в239612 0.1 100960
03:000в2396100 0.1 100854
06:000в259767 0.0 1008112
09:00+4вюв2477100 0.0 1008411
12:00+7вюв3560100 0.0 10081059
15:00+7вюв3357100 0.0 10081011
18:00+6вюв336599 0.0 1008685
21:00+2вюв2394100 0.0 100973